This is the latest recevied weather packets stored in our database for station/object HS5BOG-13. If no packets are shown the sender has not sent any weather packets the latest 10 day(s).
| Time | Temp. | Humidity | Pressure | Rain* | Wind** | Luminosity | Snow |
|---|---|---|---|---|---|---|---|
| 1777727838 | 32.78° C | 41% | 989.1 hPa | - | - | - | - |
| 1777727232 | 32.78° C | 41% | 988.9 hPa | - | - | - | - |
| 1777726627 | 32.78° C | 40% | 988.6 hPa | - | - | - | - |
| 1777726022 | 32.78° C | 40% | 988.4 hPa | - | - | - | - |
| 1777725416 | 32.78° C | 39% | 988.2 hPa | - | - | - | - |
| 1777724810 | 32.78° C | 40% | 987.9 hPa | - | - | - | - |
| 1777724205 | 32.78° C | 40% | 987.8 hPa | - | - | - | - |
| 1777722388 | 33.33° C | 40% | 987 hPa | - | - | - | - |
| 1777721782 | 33.33° C | 41% | 987 hPa | - | - | - | - |
| 1777721177 | 33.33° C | 40% | 986.9 hPa | - | - | - | - |
| 1777720571 | 33.33° C | 36% | 986.9 hPa | - | - | - | - |
| 1777719966 | 33.33° C | 38% | 986.7 hPa | - | - | - | - |
| 1777719360 | 33.33° C | 37% | 986.6 hPa | - | - | - | - |
| 1777718755 | 33.33° C | 34% | 986.8 hPa | - | - | - | - |
| 1777718149 | 33.33° C | 38% | 986.8 hPa | - | - | - | - |
| 1777717544 | 33.33° C | 37% | 986.7 hPa | - | - | - | - |
| 1777716938 | 33.33° C | 37% | 986.7 hPa | - | - | - | - |
| 1777716332 | 33.33° C | 36% | 986.6 hPa | - | - | - | - |
| 1777715727 | 33.33° C | 38% | 986.7 hPa | - | - | - | - |
| 1777715121 | 33.33° C | 35% | 986.5 hPa | - | - | - | - |
| 1777714515 | 32.78° C | 35% | 986.5 hPa | - | - | - | - |
| 1777713910 | 32.78° C | 37% | 986.7 hPa | - | - | - | - |
| 1777713304 | 32.78° C | 38% | 986.8 hPa | - | - | - | - |
| 1777712699 | 33.33° C | 35% | 986.9 hPa | - | - | - | - |
| 1777712093 | 32.78° C | 39% | 987.1 hPa | - | - | - | - |
* Rain since midnight (hover to see other rain measurements)
** Current wind speed in m/s (hover to see current wind gust speed)